Wetbulb
49.38 49.28 49.46 49.52 50.19 48.78 46.39 45.39 42.25 43.23 44.39 39.97 36.66 32.94 30.87 29.88 28.79 30.39 28.53 28.31 26.52 25.03 24.16 23.50 23.03 22.37 23.19 26.51 25.18 20.66 23.35 19.71 14.69 18.89 22.27 22.62 20.82 17.86 17.81 10.33 8.77 13.44 10.30 9.74
48.97 48.95 48.87 48.68 49.43 46.09 43.89 40.94 40.22 45.02 42.71 37.45 32.08 29.59 27.74 28.95 27.60 27.16 26.73 25.17 26.14 26.27 23.85 21.54 22.96 22.82 25.97 26.36 24.47 21.92 23.20 18.05 12.72 15.46 17.24 18.72 16.60 19.84 19.01 17.61 15.88 8.60 5.15 9.06
48.72 48.32 48.16 48.09 48.61 45.04 44.26 41.41 39.32 40.13 38.15 35.86 33.76 29.46 27.79 25.59 28.23 26.48 26.88 25.66 26.32 24.22 22.76 24.01 21.92 21.81 24.24 25.98 25.33 26.04 24.81 19.61 15.41 11.96 14.95 18.66 15.21 17.67 18.83 15.90 8.75 9.89 10.45 12.51
48.56 47.60 47.36 47.52 47.49 42.98 44.39 39.05 35.55 32.31 34.53 32.27 31.87 31.40 29.51 25.95 23.85 26.94 27.46 24.54 24.99 23.94 21.55 21.71 20.57 22.64 22.82 24.53 25.71 24.85 22.55 15.19 17.78 18.55 18.32 18.43 16.94 15.78 15.83 13.37 14.10 8.58 11.57 11.51
48.21 47.05 46.37 46.77 46.38 42.03 40.75 38.47 35.75 33.73 31.24 30.17 30.22 28.47 27.61 26.60 24.40 25.93 24.21 23.57 24.85 24.38 22.18 22.90 19.68 21.57 21.63 21.41 23.78 22.22 23.66 15.11 18.34 14.65 19.25 18.52 14.10 17.05 16.91 15.29 15.06 14.36 14.45 12.57
47.67 46.01 45.67 45.86 45.02 42.65 40.32 36.69 36.77 37.84 30.51 29.38 29.10 29.68 28.18 27.04 27.32 25.55 26.90 26.20 24.41 22.00 23.53 25.59 26.17 26.78 25.60 24.35 21.37 20.60 19.98 17.50 14.85 9.96 18.20 16.41 10.52 14.32 14.96 14.57 16.08 14.95 8.97 14.38
47.42 46.07 45.10 44.40 43.67 43.14 42.10 37.44 38.31 35.16 30.57 29.52 28.84 27.11 27.30 26.52 26.40 24.26 24.83 26.28 23.96 24.67 28.33 27.05 25.88 25.24 23.90 23.75 22.83 23.92 18.81 17.15 16.10 10.26 14.08 3.73 11.83 17.41 16.22 13.95 15.37 17.55 16.45 15.83
47.15 46.00 44.88 43.12 43.40 40.95 37.65 35.50 38.00 36.01 30.07 29.94 26.64 26.78 26.18 26.41 26.62 24.40 24.40 25.15 26.95 28.90 25.62 21.23 18.56 18.25 18.23 19.48 21.47 21.09 22.05 18.36 12.97 8.97 9.96 14.66 10.82 14.01 13.18 10.35 10.77 16.60 12.77 14.77
47.41 45.46 45.07 43.24 42.37 41.57 36.98 34.82 36.13 37.57 31.41 27.07 29.22 26.21 26.93 24.61 24.71 22.95 23.53 26.44 28.47 27.00 24.19 20.61 13.72 15.44 16.48 14.32 14.96 19.94 19.84 20.08 14.30 12.61 5.18 2.98 12.82 15.69 17.77 15.96 6.54 15.16 15.12 13.95
47.13 45.26 44.96 45.04 43.67 41.93 37.75 33.40 35.83 36.97 29.03 27.57 29.09 26.64 24.91 27.94 25.99 24.33 23.49 23.56 23.07 25.88 21.15 17.62 16.16 15.79 18.04 12.32 12.19 11.92 13.56 14.13 10.45 11.15 8.59 13.11 16.23 16.41 17.02 5.15 6.73 15.66 15.73 14.83
47.17 44.91 44.53 44.89 43.06 41.44 37.17 31.80 35.70 35.79 29.18 26.84 28.68 28.18 25.46 25.19 26.86 22.84 23.29 21.69 21.44 20.75 17.12 17.97 18.94 15.47 16.88 13.42 16.36 14.50 13.29 11.95 11.68 12.45 7.41 4.46 17.99 16.41 9.57 12.78 16.39 15.94 15.84 15.41
45.94 44.71 43.86 43.19 42.11 40.66 38.28 30.40 33.60 33.97 29.31 25.16 28.71 27.67 28.22 28.04 27.45 25.96 23.83 22.68 22.24 24.24 20.80 19.27 19.97 15.54 15.35 14.39 11.97 17.08 10.88 15.40 12.47 13.79 13.36 17.39 19.24 16.97 19.36 17.75 14.89 15.75 15.27 15.58
46.01 44.40 44.28 42.97 42.06 40.16 37.05 32.55 33.13 33.05 27.19 25.57 26.82 24.36 28.20 30.14 28.65 29.85 24.29 24.46 25.17 23.01 23.36 22.27 19.97 14.25 18.26 12.91 14.81 14.78 15.65 15.30 13.48 13.28 16.87 17.34 18.43 19.17 18.74 18.30 16.51 16.97 16.95 15.76
45.39 43.93 43.52 42.69 41.57 39.56 36.41 33.32 34.02 34.30 29.51 23.67 21.54 29.27 25.40 28.77 30.35 28.72 28.34 25.95 25.94 24.81 25.06 21.24 19.28 16.09 19.73 17.18 15.65 14.76 15.24 14.90 14.40 14.48 18.48 17.80 17.53 18.23 18.19 17.25 17.53 16.74 16.80 15.76
45.36 44.01 42.97 41.88 40.42 38.77 35.12 33.87 33.35 34.04 32.66 22.11 20.35 25.61 25.74 28.40 29.21 27.71 28.14 26.92 25.33 23.73 20.25 19.06 17.03 20.77 18.25 18.14 16.36 15.32 17.03 15.61 13.30 13.35 16.19 13.46 14.84 17.63 18.03 15.32 14.87 15.53 14.33 13.01
44.93 43.85 41.97 40.69 39.56 38.18 35.75 30.58 33.43 33.44 33.30 24.99 18.48 24.64 23.01 25.94 27.83 27.06 26.30 26.67 25.59 25.30 22.71 21.03 21.40 20.43 18.90 14.62 13.75 16.09 17.45 16.14 14.76 15.32 15.78 15.55 16.76 17.60 17.35 15.07 15.23 15.26 14.78 14.07
44.25 42.30 40.78 40.00 37.67 36.31 32.29 31.91 31.98 33.29 33.63 24.81 17.41 17.97 21.62 23.30 24.65 24.62 25.01 26.00 25.77 25.23 23.05 20.76 20.73 19.38 20.02 16.21 12.36 16.85 17.97 18.42 18.22 18.11 14.86 13.38 15.56 13.56 15.98 15.75 15.42 15.74 15.15 15.57
42.86 41.36 39.85 38.73 38.14 35.81 29.78 30.34 32.61 32.19 28.04 27.58 18.95 16.36 18.20 22.02 19.82 19.34 23.32 22.59 24.35 23.50 22.24 20.50 18.92 17.50 17.74 12.32 18.19 17.66 17.74 17.28 17.04 16.97 16.67 15.11 15.96 15.83 15.38 15.80 14.70 12.75 12.56 13.65
41.50 39.97 38.37 35.21 32.02 29.10 27.70 32.01 31.04 29.78 28.86 20.67 21.36 15.73 14.65 20.85 18.37 20.05 20.27 20.90 17.93 22.26 19.54 18.94 18.30 16.74 11.87 16.94 16.88 16.83 17.67 14.82 14.43 15.83 15.77 15.50 14.06 13.96 13.93 13.23 12.39 10.61 11.03 12.22
39.23 33.90 30.97 25.80 29.07 34.38 32.49 27.51 26.32 24.22 22.38 22.45 16.53 18.78 13.63 18.47 17.95 15.73 17.59 17.93 16.98 13.32 16.73 18.22 14.98 14.66 19.24 18.31 18.44 18.03 16.76 15.73 14.63 10.05 11.74 12.54 11.33 11.66 11.09 10.67 11.74 12.08 12.14 12.77
31.70 28.43 24.84 29.39 32.74 27.51 25.91 20.68 22.60 19.40 16.60 17.74 14.64 17.03 13.54 17.96 15.49 14.17 14.65 14.83 14.69 10.41 13.01 12.18 13.09 12.19 17.30 18.78 17.89 18.25 17.27 15.99 14.15 13.28 12.90 12.04 10.69 9.73 9.62 10.18 11.85 13.08 12.95 11.29
32.05 28.80 28.58 26.75 24.85 23.34 20.57 18.18 14.94 15.67 16.50 12.39 15.13 14.77 16.61 15.26 18.42 15.03 12.10 12.27 11.32 8.84 13.67 11.10 9.21 16.86 18.19 17.79 17.42 17.42 16.56 14.64 13.41 13.31 10.12 10.40 10.54 10.85 10.93 11.32 12.42 12.35 12.37 12.03
29.87 27.45 22.27 22.47 19.32 16.34 15.35 11.09 13.50 12.91 13.65 13.62 14.37 12.47 14.74 13.95 15.41 11.19 12.16 10.23 10.03 11.99 9.33 9.39 14.54 17.82 18.36 17.72 17.11 16.57 16.66 15.17 14.07 13.23 13.41 12.80 12.39 13.54 12.72 11.32 12.20 12.25 10.85 10.95
26.39 21.76 14.87 17.95 14.16 17.56 19.54 19.82 17.67 16.37 16.98 16.57 15.62 12.58 14.61 13.91 11.45 10.04 9.66 7.57 8.35 7.15 5.41 8.38 17.54 17.28 17.79 17.30 16.83 14.86 14.37 14.67 12.79 11.96 11.53 11.40 11.39 10.45 11.49 11.18 10.84 9.76 8.33 8.80
22.63 23.72 18.11 14.55 14.60 14.47 15.25 15.74 14.95 16.50 17.87 15.40 13.31 13.29 14.84 10.26 7.32 8.94 7.85 4.70 6.25 9.36 10.22 16.68 19.53 18.05 14.97 14.56 15.25 14.30 14.11 12.72 10.64 9.36 8.39 8.54 8.38 8.03 8.85 9.14 8.91 9.78 9.63 9.22
20.05 17.28 13.45 14.55 14.38 12.11 14.54 14.92 13.04 17.32 16.11 17.23 17.39 11.50 10.38 7.43 9.13 6.98 8.25 8.55 7.04 13.10 16.64 20.12 18.37 14.59 13.70 13.47 13.65 11.59 10.18 9.13 9.46 9.08 6.68 7.12 5.45 4.92 7.87 8.10 8.32 8.06 9.61 9.12
16.98 14.88 18.88 18.00 18.00 15.69 15.16 16.37 14.75 17.02 17.69 14.05 13.96 10.88 8.77 5.65 7.19 7.39 10.22 10.17 16.40 18.89 18.75 19.93 18.95 17.95 16.05 13.13 11.13 8.69 6.95 7.25 6.86 6.79 6.41 7.27 8.88 6.59 8.15 9.55 12.73 11.42 12.70 11.46
MSLP
1024.72 1024.36 1024.04 1023.73 1023.40 1022.71 1022.13 1021.93 1021.27 1022.02 1021.96 1021.81 1022.79 1024.08 1025.64 1026.90 1027.31 1027.60 1027.67 1027.55 1027.40 1027.26 1027.59 1027.70 1028.24 1028.65 1029.49 1030.53 1030.93 1030.99 1031.35 1031.16 1030.14 1029.51 1030.25 1030.89 1030.89 1030.71 1030.70 1030.31 1029.68 1029.58 1029.65 1029.06
1024.71 1024.53 1024.05 1023.50 1023.22 1022.90 1022.70 1022.14 1021.98 1021.95 1021.75 1021.83 1023.33 1025.38 1026.36 1027.06 1027.63 1028.23 1028.24 1028.35 1028.68 1028.68 1028.45 1028.54 1028.83 1029.54 1030.64 1031.01 1031.16 1031.29 1031.59 1031.09 1030.24 1029.58 1030.83 1031.14 1030.99 1030.54 1030.83 1031.04 1030.78 1030.20 1029.97 1029.21
1024.55 1024.28 1024.04 1023.57 1023.21 1023.03 1022.68 1022.50 1022.35 1022.35 1022.63 1023.55 1023.47 1024.79 1026.24 1027.31 1028.04 1028.39 1028.59 1028.59 1028.88 1029.11 1028.99 1029.32 1029.32 1029.75 1030.67 1031.13 1031.29 1031.81 1031.95 1031.50 1031.29 1030.52 1030.29 1030.60 1030.42 1030.57 1030.72 1030.80 1030.79 1030.03 1029.79 1029.22
1024.35 1024.10 1023.85 1023.56 1023.23 1022.89 1022.76 1022.93 1023.46 1024.28 1023.78 1023.90 1024.31 1024.88 1025.85 1026.94 1027.89 1028.61 1029.00 1029.14 1028.89 1028.98 1029.13 1029.44 1029.47 1029.93 1030.56 1031.01 1031.38 1031.69 1031.74 1031.30 1030.93 1030.92 1030.91 1030.74 1030.62 1030.75 1031.16 1030.95 1030.75 1030.71 1030.26 1030.22
1023.91 1023.83 1023.64 1023.55 1023.31 1023.00 1022.88 1023.36 1023.81 1024.70 1024.53 1025.00 1024.98 1025.54 1026.01 1026.83 1028.01 1028.47 1028.86 1029.25 1029.43 1029.76 1029.56 1029.87 1030.04 1030.21 1030.62 1030.46 1031.12 1031.35 1031.19 1031.16 1030.84 1030.76 1030.25 1030.16 1030.50 1030.70 1030.93 1031.27 1031.12 1030.92 1030.73 1030.47
1023.41 1023.39 1023.37 1023.19 1023.24 1023.06 1023.01 1024.04 1024.10 1023.78 1024.93 1025.16 1025.35 1025.29 1025.87 1026.67 1027.64 1029.10 1029.11 1029.32 1029.88 1030.43 1030.60 1030.69 1030.92 1030.98 1031.12 1031.13 1031.32 1031.17 1031.17 1031.06 1030.86 1030.00 1030.04 1030.33 1030.06 1030.54 1031.40 1031.75 1031.83 1031.68 1031.34 1031.29
1022.77 1022.97 1022.90 1022.88 1022.74 1022.87 1022.80 1023.63 1023.50 1023.67 1024.19 1025.10 1025.46 1026.11 1026.99 1027.59 1028.04 1028.55 1029.60 1029.97 1030.16 1031.07 1031.61 1031.76 1031.76 1031.47 1031.29 1031.24 1031.31 1031.55 1031.29 1031.28 1031.41 1030.57 1030.65 1030.38 1031.13 1031.89 1032.48 1032.50 1032.30 1032.13 1032.02 1032.40
1022.08 1022.50 1022.52 1022.39 1022.33 1022.48 1023.07 1023.89 1023.74 1023.39 1024.09 1025.12 1026.36 1026.96 1027.55 1028.47 1028.91 1029.35 1029.79 1030.62 1031.14 1031.20 1031.33 1031.32 1031.07 1031.00 1031.15 1030.95 1031.23 1031.54 1031.77 1031.56 1031.15 1030.93 1030.51 1030.57 1031.76 1032.30 1032.93 1033.25 1032.48 1032.49 1033.39 1033.52
1021.73 1022.07 1022.19 1022.18 1022.15 1022.15 1022.96 1024.23 1024.44 1024.06 1024.56 1026.13 1026.43 1027.45 1028.39 1028.52 1028.74 1029.91 1030.55 1031.43 1031.56 1031.56 1031.10 1031.07 1030.87 1030.11 1030.38 1030.84 1031.40 1032.04 1031.90 1031.85 1031.66 1030.84 1031.12 1030.67 1031.38 1032.88 1033.72 1034.02 1033.14 1033.77 1034.23 1034.10
1021.30 1021.54 1021.62 1021.82 1021.77 1022.07 1022.68 1024.58 1024.61 1024.39 1025.85 1027.82 1027.74 1028.02 1028.55 1028.96 1028.88 1029.20 1030.45 1031.29 1031.67 1031.71 1031.25 1030.91 1030.62 1030.36 1030.93 1030.86 1031.12 1031.60 1031.98 1032.03 1031.51 1031.07 1030.85 1030.91 1032.20 1033.31 1034.12 1034.35 1034.82 1034.52 1034.71 1034.63
1020.61 1021.22 1021.54 1021.79 1021.79 1022.06 1022.46 1025.04 1024.91 1024.45 1026.65 1028.90 1029.23 1029.26 1029.45 1029.68 1029.44 1029.36 1030.73 1031.46 1031.68 1031.64 1031.40 1031.03 1030.55 1031.02 1031.35 1031.60 1031.43 1031.67 1031.69 1031.90 1031.46 1031.56 1031.59 1031.76 1032.79 1033.37 1034.12 1034.54 1034.73 1034.98 1034.96 1034.95
1020.46 1021.20 1021.70 1022.11 1022.22 1022.47 1022.40 1024.82 1025.44 1025.03 1027.00 1029.75 1030.16 1030.64 1030.72 1030.54 1030.36 1030.21 1030.83 1031.08 1031.02 1030.93 1031.18 1031.75 1031.55 1031.50 1031.97 1031.87 1031.41 1032.54 1032.72 1032.89 1033.12 1032.38 1031.92 1032.66 1033.27 1033.70 1033.98 1034.63 1035.12 1035.13 1035.23 1035.27
1020.22 1021.09 1021.55 1022.19 1022.22 1022.66 1022.83 1024.75 1025.32 1025.69 1027.92 1029.99 1030.17 1030.68 1031.12 1031.03 1030.84 1030.97 1030.68 1031.39 1031.60 1032.05 1032.37 1032.07 1032.24 1032.09 1032.00 1031.91 1031.80 1032.41 1033.08 1033.77 1033.76 1033.52 1032.85 1033.06 1033.62 1034.24 1034.72 1034.99 1035.23 1035.37 1035.41 1035.34
1019.71 1020.68 1021.33 1022.03 1022.31 1022.92 1023.23 1024.52 1025.53 1025.52 1027.22 1028.97 1030.87 1031.03 1031.32 1031.83 1031.00 1030.95 1031.28 1031.74 1032.24 1032.77 1032.75 1032.57 1032.62 1032.49 1032.65 1032.14 1032.98 1033.33 1033.77 1034.25 1034.09 1033.65 1033.08 1033.59 1034.00 1034.47 1034.93 1035.27 1035.45 1035.45 1035.49 1035.46
1019.53 1020.59 1021.40 1021.82 1022.36 1023.22 1023.79 1024.97 1025.79 1025.76 1026.24 1028.84 1030.86 1031.33 1031.84 1031.79 1031.43 1031.28 1031.47 1032.08 1032.29 1032.80 1033.05 1032.88 1032.64 1032.86 1033.24 1033.34 1033.62 1033.08 1033.53 1033.74 1034.38 1033.99 1034.47 1034.86 1034.69 1034.88 1035.23 1035.53 1035.66 1035.69 1035.63 1035.45
1019.58 1020.85 1021.48 1022.14 1022.76 1023.00 1023.99 1025.30 1026.13 1025.90 1026.12 1028.16 1030.89 1031.83 1032.00 1032.03 1031.68 1031.53 1031.92 1032.35 1032.84 1033.15 1032.83 1032.93 1033.13 1033.59 1033.75 1033.43 1032.91 1033.29 1033.72 1034.47 1035.25 1035.32 1035.53 1035.56 1035.41 1035.39 1035.59 1035.85 1035.84 1035.80 1035.72 1035.59
1019.74 1021.11 1021.49 1022.53 1023.39 1023.99 1024.23 1025.28 1025.77 1025.95 1026.29 1027.97 1031.05 1031.79 1032.51 1032.53 1032.29 1032.01 1032.43 1032.72 1033.00 1033.33 1033.42 1033.25 1033.07 1033.59 1034.11 1033.71 1033.10 1033.36 1033.79 1034.37 1035.20 1035.64 1036.06 1035.75 1035.57 1035.73 1035.99 1036.00 1035.92 1035.86 1035.64 1035.27
1020.11 1021.36 1022.28 1023.11 1023.87 1024.76 1024.99 1025.79 1026.24 1026.12 1026.62 1027.86 1030.12 1032.07 1032.58 1032.74 1032.33 1032.50 1033.07 1032.96 1033.20 1033.64 1033.67 1033.88 1033.33 1033.98 1034.01 1033.26 1032.87 1033.47 1034.05 1034.64 1035.19 1035.59 1035.98 1036.19 1036.23 1036.14 1036.04 1036.05 1035.98 1035.83 1035.50 1035.17
1020.93 1021.67 1022.77 1023.53 1024.44 1025.69 1026.19 1025.87 1026.37 1026.53 1027.14 1028.60 1030.07 1030.94 1032.16 1032.71 1032.75 1033.11 1033.71 1033.80 1033.47 1034.05 1033.76 1033.91 1033.98 1033.03 1032.98 1032.31 1033.02 1033.56 1034.12 1034.88 1035.33 1035.77 1035.94 1036.08 1036.27 1036.21 1036.17 1036.23 1036.17 1036.09 1035.69 1035.41
1021.33 1022.52 1023.34 1025.25 1025.88 1026.15 1026.19 1026.56 1026.72 1027.18 1028.56 1029.28 1030.39 1031.20 1032.43 1032.77 1032.70 1033.65 1034.35 1034.51 1034.34 1034.25 1034.42 1034.54 1033.62 1032.08 1031.94 1032.53 1033.01 1033.80 1034.55 1035.14 1035.75 1036.14 1036.06 1036.32 1036.59 1036.62 1036.55 1036.49 1036.36 1036.10 1035.76 1035.43
1021.72 1022.87 1024.56 1025.87 1026.15 1026.50 1026.69 1027.09 1027.56 1028.50 1029.53 1030.26 1031.28 1031.39 1032.08 1033.39 1032.95 1033.68 1034.94 1034.92 1035.04 1034.49 1034.57 1034.42 1032.82 1031.65 1031.58 1032.35 1033.05 1033.80 1034.60 1035.23 1035.85 1036.22 1036.56 1036.90 1037.06 1037.02 1036.80 1036.54 1036.30 1035.97 1035.75 1035.65
1021.27 1022.75 1024.69 1025.87 1026.54 1026.87 1026.81 1027.19 1028.03 1028.58 1029.37 1030.82 1031.18 1031.70 1031.92 1033.51 1033.81 1033.87 1035.57 1035.57 1035.61 1034.56 1034.78 1034.05 1032.23 1031.16 1031.84 1032.48 1033.05 1033.79 1034.59 1035.25 1035.74 1036.17 1036.62 1036.82 1036.97 1036.95 1036.74 1036.43 1036.11 1035.97 1035.84 1035.65
1021.67 1022.86 1024.78 1025.85 1026.50 1026.32 1026.26 1026.33 1027.14 1028.07 1029.12 1030.10 1030.92 1031.86 1032.39 1033.82 1034.09 1034.59 1035.23 1035.45 1035.20 1035.23 1034.20 1032.52 1031.02 1031.18 1031.94 1032.65 1033.27 1033.89 1034.52 1035.09 1035.62 1036.08 1036.38 1036.59 1036.62 1036.48 1036.38 1036.23 1036.11 1035.98 1035.80 1035.59
1021.25 1022.88 1024.68 1024.89 1025.38 1024.91 1024.60 1024.81 1025.54 1027.13 1027.88 1029.14 1030.08 1031.49 1032.16 1033.45 1034.06 1034.64 1034.82 1035.60 1035.24 1034.26 1032.93 1031.11 1030.39 1031.18 1032.03 1032.82 1033.46 1034.12 1034.48 1035.01 1035.62 1036.09 1036.36 1036.50 1036.51 1036.41 1036.28 1036.16 1036.09 1035.99 1035.70 1035.35
1021.83 1022.79 1023.65 1024.68 1024.95 1025.14 1025.88 1026.10 1026.68 1027.62 1028.56 1029.21 1030.17 1031.33 1031.96 1033.46 1034.22 1034.52 1034.68 1034.93 1033.67 1032.27 1030.63 1029.95 1030.43 1031.40 1032.30 1033.02 1033.64 1034.17 1034.60 1035.10 1035.65 1036.09 1036.33 1036.46 1036.53 1036.45 1036.18 1035.95 1035.80 1035.65 1035.35 1035.06
1023.05 1023.87 1024.59 1025.15 1025.06 1026.22 1026.68 1026.85 1027.61 1028.24 1028.67 1029.18 1029.54 1031.00 1032.22 1033.13 1033.32 1033.62 1032.77 1032.34 1031.04 1029.76 1029.80 1030.03 1030.97 1031.85 1032.50 1033.17 1033.75 1034.23 1034.64 1035.15 1035.63 1035.94 1036.18 1036.29 1036.34 1036.24 1035.94 1035.64 1035.32 1035.07 1034.87 1034.57
1024.25 1024.77 1024.64 1024.89 1025.22 1026.10 1026.87 1027.27 1028.21 1028.75 1028.76 1029.03 1029.76 1030.87 1032.08 1033.02 1032.57 1031.93 1031.42 1030.16 1029.01 1029.00 1029.60 1030.31 1031.08 1031.78 1032.49 1033.18 1033.73 1034.14 1034.58 1035.04 1035.36 1035.65 1035.78 1035.81 1035.74 1035.70 1035.53 1035.05 1034.54 1034.49 1034.19 1033.93
Wind_Speed
8 9 11 14 17 19 3 3 3 3 1 1 3 3 2 2 4 1 1 2 2 2 0 2 3 1 2 3 1 2 3 5 6 6 3 2 4 8 7 5 10 11 15 14
7 9 10 10 12 10 4 4 3 2 3 1 4 4 3 2 3 1 1 1 3 1 1 4 3 2 4 3 1 3 3 3 7 8 5 3 6 6 6 11 12 15 14 10
7 6 8 9 10 5 1 2 3 3 4 2 3 5 4 5 2 3 2 3 2 3 4 3 2 3 3 4 3 2 3 6 8 9 11 10 15 14 10 11 10 14 14 19
8 5 6 8 7 2 2 3 2 1 2 2 4 2 7 6 5 2 4 3 6 4 3 4 3 2 3 7 5 4 4 8 9 12 13 16 17 13 12 13 14 14 17 18
9 6 4 5 5 2 3 2 3 2 2 3 4 2 7 7 3 6 5 5 5 4 3 4 3 3 4 4 7 9 5 8 9 14 16 10 13 15 14 11 12 14 15 18
10 5 4 4 3 3 2 2 2 3 5 4 3 2 5 8 9 2 2 2 4 4 3 2 3 5 4 4 5 6 6 6 8 10 8 13 14 4 6 8 9 12 15 18
14 9 5 1 2 7 2 1 2 3 3 5 3 5 3 8 6 4 5 3 2 5 3 1 3 7 8 9 9 9 8 7 7 9 12 11 5 2 3 8 11 14 16 11
15 12 7 3 7 7 3 2 2 3 3 3 4 8 5 8 6 5 6 3 4 4 2 4 5 5 6 6 6 8 9 8 6 5 8 15 6 3 2 4 17 6 4 12
16 13 11 9 12 13 5 3 1 0 5 5 6 8 11 5 5 5 4 4 3 3 2 3 4 4 3 3 4 4 5 7 6 6 9 9 6 5 2 6 6 4 11 15
18 14 12 13 10 11 5 3 3 3 5 2 5 4 6 3 3 3 4 5 5 2 3 4 4 3 2 4 4 5 5 7 11 11 11 7 6 2 1 6 6 11 12 14
20 16 11 13 14 16 5 4 4 3 5 4 3 2 4 3 4 4 6 5 3 4 5 3 2 4 2 3 2 3 4 4 6 4 5 8 5 3 5 4 9 11 13 12
19 16 14 14 10 11 7 5 4 9 8 5 6 7 6 5 5 4 4 2 3 2 3 2 1 3 2 3 4 2 4 3 4 3 5 3 1 5 7 3 7 11 13 13
20 18 15 12 12 6 7 5 3 4 6 4 3 4 5 6 6 4 2 1 4 3 3 2 1 5 0 4 4 3 4 2 4 5 4 2 6 4 1 4 11 12 11 13
23 21 19 17 15 14 7 4 2 4 6 5 3 2 4 6 4 5 4 7 5 5 1 1 2 3 2 1 3 4 4 4 4 9 10 7 4 3 7 10 11 11 13 13
24 23 20 20 19 18 12 5 2 1 2 5 4 4 2 3 4 9 8 7 5 3 2 2 3 0 2 1 2 7 6 2 3 4 6 3 9 7 11 10 10 12 13 15
24 22 22 22 22 20 3 3 1 1 4 7 5 3 3 3 6 8 7 4 3 1 2 1 2 3 2 3 4 4 4 4 2 4 4 8 11 9 6 9 11 12 11 12
27 25 25 21 11 3 3 2 3 5 3 5 5 4 3 2 1 3 3 2 1 2 0 3 1 3 2 2 6 6 6 4 5 6 4 6 2 5 10 10 10 11 12 11
30 28 22 17 20 13 4 5 4 2 5 4 5 3 4 2 3 3 2 2 2 2 1 2 2 3 3 5 4 5 4 3 6 5 5 7 9 9 9 8 9 11 11 11
31 29 22 5 5 2 3 8 7 4 4 4 2 7 5 2 3 3 2 1 3 1 3 1 2 3 6 3 6 6 4 3 3 5 6 8 8 8 8 8 9 10 10 11
33 7 4 4 2 11 6 2 2 4 4 3 3 2 4 2 3 3 2 1 0 3 2 1 4 5 2 5 4 3 3 3 3 3 4 4 7 7 8 8 8 9 10 11
2 4 4 4 5 1 2 3 1 1 2 1 2 2 6 1 3 4 1 1 1 3 3 3 3 4 4 6 6 4 4 5 6 5 5 5 7 8 8 9 8 9 10 9
8 10 8 3 1 1 3 2 3 3 4 4 4 4 4 4 1 4 2 2 2 2 1 3 4 2 6 6 5 4 4 4 5 4 5 5 7 7 8 9 9 8 9 9
5 5 5 3 2 5 8 10 4 5 8 7 6 5 4 4 3 4 3 5 2 0 3 4 3 5 6 4 3 4 5 5 5 5 6 6 8 7 7 8 8 9 8 7
4 5 8 6 6 6 3 2 5 4 8 10 8 5 3 3 3 2 4 2 2 3 4 5 3 7 6 5 4 4 5 6 5 5 5 6 6 6 7 6 5 6 7 7
4 3 5 5 4 5 4 6 6 5 8 7 7 6 4 3 4 1 4 3 5 5 5 2 3 5 4 4 5 5 5 3 3 3 3 4 4 5 7 5 5 6 6 7
4 4 4 4 4 4 3 6 9 5 6 4 4 5 4 3 3 5 6 5 7 3 3 3 5 4 4 4 4 4 3 3 3 3 3 4 4 5 6 6 6 5 6 6
3 3 4 3 5 5 4 6 5 4 3 3 3 5 3 4 3 4 4 6 2 4 4 3 4 4 4 4 4 3 3 4 4 2 3 4 4 4 6 7 5 4 6 5
Wind_Direction
322 334 348 351 349 340 293 294 284 35 263 141 50 84 73 73 127 90 10 340 6 306 243 273 278 281 44 119 54 325 49 310 290 294 70 269 295 292 295 277 295 293 302 294
303 323 343 353 358 15 323 332 327 71 294 304 110 133 111 88 155 63 159 124 326 302 256 287 239 234 112 150 220 0 69 197 289 153 165 193 231 265 257 284 280 271 279 293
274 312 332 351 358 1 255 296 297 55 55 14 125 156 175 152 116 134 146 139 182 205 222 226 265 227 175 188 223 106 257 250 261 282 313 301 292 297 288 256 270 291 295 307
257 284 324 345 348 10 245 18 109 36 329 84 118 174 162 168 180 193 193 176 229 217 250 235 236 222 205 209 194 215 255 269 278 275 289 286 283 283 293 278 263 272 300 297
233 259 300 335 345 237 89 177 174 165 110 137 166 176 199 199 157 174 187 247 172 210 254 286 305 255 226 255 174 233 206 274 291 283 283 282 274 269 278 265 279 279 297 298
219 248 282 324 324 231 121 123 120 270 137 183 223 199 174 186 152 164 342 198 180 224 293 298 325 282 297 292 257 232 242 272 295 281 299 300 278 251 243 276 282 291 296 313
200 212 229 309 194 217 79 145 151 187 175 216 227 160 159 172 174 145 146 163 209 94 103 78 247 253 253 251 245 247 263 253 271 283 293 266 95 108 301 289 290 296 310 331
194 205 197 141 164 144 102 130 220 178 168 159 159 160 138 131 125 115 148 128 65 136 187 261 267 207 226 214 237 223 237 261 283 270 297 288 166 193 290 325 302 334 334 325
199 198 183 142 139 135 98 82 306 85 139 190 131 148 178 166 166 155 126 114 118 194 245 231 262 279 12 211 188 216 212 245 254 278 286 285 79 132 348 295 278 76 332 324
197 194 192 186 177 148 106 91 3 104 105 104 154 157 182 172 154 126 135 161 171 208 208 238 247 254 351 256 249 180 210 234 241 251 260 273 112 104 255 272 16 320 330 322
187 186 185 182 152 139 89 89 6 99 94 86 1 55 146 143 206 174 121 150 188 179 215 245 201 256 128 280 313 269 246 255 229 246 275 261 147 182 259 349 321 324 323 321
177 172 153 157 145 133 102 97 75 63 72 85 84 76 45 13 8 115 166 23 131 140 206 241 322 222 179 306 274 206 256 303 335 291 6 112 326 283 305 336 310 321 320 321
171 171 173 158 134 116 99 111 139 93 105 102 142 75 39 35 24 338 165 162 97 153 12 72 348 247 266 236 245 277 186 151 259 332 85 14 322 342 22 321 325 319 318 320
165 165 160 152 133 125 119 95 152 99 110 114 127 158 53 341 27 52 38 107 88 102 185 133 215 257 180 318 1 284 32 152 264 259 270 315 114 322 327 322 317 319 322 320
164 160 155 139 127 111 85 87 73 359 90 118 124 125 62 26 78 87 98 115 119 153 160 190 213 4 231 119 284 246 170 199 239 315 352 278 296 332 323 317 317 322 322 315
156 156 144 134 134 121 176 104 119 65 107 110 136 75 77 77 103 95 90 86 73 248 210 191 145 61 278 261 268 118 170 171 196 301 310 289 290 306 317 315 316 317 309 316
152 145 135 132 129 68 72 94 102 135 107 96 112 125 91 39 104 80 93 80 118 285 180 228 171 152 254 267 264 126 173 210 258 266 299 277 306 317 316 307 313 311 307 306
140 132 126 114 106 122 75 35 55 71 89 77 119 104 159 327 122 113 40 161 206 178 311 203 215 138 221 253 218 165 178 250 267 263 226 262 292 299 300 313 314 313 314 321
132 125 119 83 51 66 113 96 72 56 63 114 146 149 150 181 93 83 115 303 212 70 242 170 245 176 226 238 181 191 203 214 265 277 271 278 279 294 305 316 317 311 313 319
126 103 85 119 77 119 121 51 73 36 22 40 94 188 115 212 131 100 156 327 334 232 105 290 238 256 140 176 162 165 188 217 214 264 284 290 292 305 310 310 305 300 301 310
157 113 80 86 67 93 36 103 186 133 117 69 89 68 127 30 133 119 27 164 186 233 121 261 224 250 180 158 176 188 203 206 215 235 269 264 267 283 295 302 304 301 313 310
116 101 87 99 145 92 154 168 116 216 186 156 146 119 95 110 107 110 132 196 210 233 97 248 248 163 141 164 188 203 203 205 229 228 248 268 271 273 281 285 296 308 304 307
106 76 92 178 188 180 202 181 179 180 169 166 159 125 105 128 93 84 163 188 192 116 222 239 246 142 166 167 185 211 205 206 226 241 247 262 273 279 280 288 295 303 300 298
93 135 143 212 191 223 183 146 110 103 129 136 115 103 100 108 101 117 160 82 258 226 235 234 181 184 177 178 190 197 221 215 223 244 256 265 281 288 290 283 284 289 287 294
93 162 178 193 87 60 81 101 103 103 127 128 113 90 95 98 112 117 122 158 225 227 230 177 146 146 154 186 201 215 224 200 217 220 239 264 281 280 285 277 274 278 280 287
67 78 112 132 96 127 134 106 115 130 126 112 73 107 115 117 136 168 205 183 221 201 198 155 140 168 188 201 201 205 189 190 221 222 227 254 258 261 278 296 277 267 273 278
75 74 83 65 77 118 118 133 120 149 176 113 132 129 108 111 168 203 200 214 201 156 158 161 177 183 191 188 189 185 191 211 223 222 234 246 260 262 271 279 292 279 290 270